Location: Bonn
(50.7330°N, 7.1000°E)
Time: 02:56:25
(UTC+02:00)

Iridium 67 - Visible Passes

Search period start: 30 July 2014 00:00
Search period end: 09 August 2014 00:00
Orbit: 776 x 779 km, 86.4° (Epoch: 29 July)

Date Brightness Start Highest point End Pass type
(mag) Time Alt. Az. Time Alt. Az. Time Alt. Az.
30 Jul 6.0 01:00:34 35° SE 01:02:16 49° E 01:07:17 10° NNE visible
30 Jul 6.9 02:41:02 20° WSW 02:43:15 27° WNW 02:47:40 10° NNW visible
31 Jul 6.7 00:27:09 24° ESE 00:28:56 29° E 00:33:24 10° NNE visible
31 Jul 6.2 02:07:38 32° SW 02:09:29 44° W 02:14:29 10° N visible
31 Jul 7.3 23:53:45 15° ESE 23:55:43 18° ENE 23:59:10 10° NE visible
01 Aug 5.5 01:34:13 45° SSW 01:35:50 74° W 01:41:04 10° N visible
01 Aug 7.8 03:15:23 10° W 03:17:34 13° WNW 03:19:45 10° NW visible
01 Aug 7.7 23:21:31 10° E 23:22:37 11° ENE 23:23:44 10° ENE visible
02 Aug 5.6 01:00:47 45° SSE 01:02:19 67° E 01:07:30 10° N visible
02 Aug 7.3 02:41:16 16° WSW 02:43:34 20° WNW 02:47:25 10° NNW visible
03 Aug 6.3 00:27:22 32° ESE 00:28:54 40° E 00:33:45 10° NNE visible
03 Aug 6.7 02:07:50 25° WSW 02:09:43 33° WNW 02:14:24 10° NNW visible
03 Aug 6.9 23:53:56 21° ESE 23:55:37 24° E 23:59:45 10° NNE visible
04 Aug 5.9 01:34:24 39° SW 01:36:00 54° W 01:41:07 10° N visible
04 Aug 7.5 23:20:30 12° E 23:22:27 15° ENE 23:25:16 10° NE visible
05 Aug 5.4 01:00:58 50° S 01:02:24 89° W 01:07:39 10° N visible
05 Aug 7.7 02:41:26 11° W 02:43:56 15° WNW 02:46:57 10° NNW visible
06 Aug 5.8 00:27:31 42° SE 00:28:55 54° E 00:34:00 10° NNE visible
06 Aug 7.1 02:07:59 20° WSW 02:10:00 24° WNW 02:14:14 10° NNW visible
06 Aug 6.5 23:54:04 28° ESE 23:55:33 33° E 00:00:10 10° NNE visible
07 Aug 6.4 01:34:32 31° WSW 01:36:11 39° WNW 01:41:06 10° N visible
07 Aug 7.1 23:20:36 17° ESE 23:22:19 20° ENE 23:26:01 10° NNE visible
08 Aug 5.7 01:01:04 46° SW 01:02:31 66° W 01:07:43 10° N visible
08 Aug 7.9 02:42:49 10° W 02:44:21 11° WNW 02:45:53 10° NW visible
08 Aug 7.6 22:47:17 10° E 22:49:11 12° ENE 22:51:06 10° NE visible
